RH
63 71 84 94 90 85 91 91 99 86 70 66 76 93 85 96 84 81 91 77 67 53 51 42 50 71 66 29 23 21 18 19 17 14 14 18 32 34 50 85 99 82 68 87
54 58 85 82 84 88 90 80 96 88 74 73 68 82 100 100 87 95 80 64 60 56 51 40 36 39 27 19 18 17 14 13 14 14 16 16 22 31 45 66 75 48 83 100
61 69 87 86 92 88 94 100 100 95 94 82 70 74 86 85 90 79 62 63 54 49 40 40 32 21 19 14 12 11 11 12 13 15 15 16 19 28 55 72 73 76 81 100
52 63 90 100 99 97 95 100 100 100 96 95 77 74 86 89 87 75 66 52 44 38 29 21 19 16 11 10 9 10 11 12 13 15 14 18 20 29 52 78 75 99 100 100
64 64 73 79 97 80 85 79 86 89 87 80 76 65 77 80 70 59 50 44 38 31 28 21 15 12 9 10 10 11 11 12 16 18 20 21 26 30 56 57 100 76 99 100
62 74 74 81 98 88 84 84 74 68 71 67 70 63 66 63 48 44 42 33 26 22 22 16 14 10 11 13 13 14 14 15 17 21 21 26 30 39 55 60 100 100 100 99
70 69 70 76 83 73 68 71 83 77 73 65 53 49 53 53 55 51 46 36 18 19 20 16 12 14 16 16 15 16 14 16 18 18 24 36 46 51 60 96 92 87 79 68
77 76 70 81 84 74 64 62 67 75 68 57 57 50 62 64 57 51 56 35 20 20 18 15 16 19 21 19 19 18 21 26 24 26 37 49 80 79 71 65 62 66 92 92
74 71 69 71 72 74 70 58 65 62 59 55 61 70 71 58 56 62 47 32 19 18 19 16 23 36 25 27 26 31 55 52 59 66 57 71 99 99 96 100 100 100 97 89
72 65 68 69 70 65 63 60 63 62 59 64 72 69 69 79 70 51 53 27 20 20 18 23 45 53 46 39 35 47 70 79 77 78 78 82 86 100 99 100 100 100 100 88
65 70 74 74 75 67 68 73 81 83 72 62 67 67 80 61 51 50 43 28 24 21 25 50 72 71 70 49 50 76 99 100 99 89 97 91 100 100 100 100 100 100 97 58
75 87 93 95 71 76 87 83 70 72 74 66 62 58 56 49 43 38 33 27 27 22 37 63 83 95 74 64 87 93 100 100 100 100 100 100 100 100 100 100 100 100 99 46
91 87 92 91 79 80 81 93 79 61 50 54 33 35 36 36 36 25 25 24 27 29 71 69 95 96 72 98 100 86 100 100 100 100 100 100 100 100 95 100 100 100 100 55
97 90 94 92 96 99 98 84 55 43 36 31 31 32 43 26 31 19 23 26 29 40 82 88 100 99 100 100 100 100 100 100 100 100 100 100 100 100 100 100 76 100 100 65
92 90 90 84 68 62 52 52 46 39 35 25 36 19 44 24 19 20 25 28 31 42 82 100 100 100 100 100 100 100 100 100 100 100 83 97 100 91 70 51 47 43 92 82
79 94 82 68 64 58 39 35 35 33 26 13 13 26 22 19 18 26 25 23 28 38 91 100 100 100 100 100 89 100 100 100 100 94 75 85 71 55 83 100 100 99 72 100
93 78 74 63 40 24 26 26 20 16 17 13 18 28 19 21 23 30 26 25 27 39 72 88 100 99 100 100 95 100 100 100 100 98 100 99 68 90 86 100 100 100 76 93
84 65 45 32 29 24 20 23 20 18 17 15 15 18 16 18 22 30 24 22 24 35 50 95 92 100 100 100 100 100 100 100 100 100 100 100 93 100 100 100 100 100 100 65
44 25 22 26 30 23 19 16 13 12 12 12 12 12 13 16 19 21 21 20 21 37 55 100 84 100 100 100 100 100 99 100 100 100 100 88 96 100 100 100 100 100 100 100
27 27 26 21 18 15 12 10 10 10 9 9 11 14 18 18 17 19 22 19 21 36 62 87 92 97 100 100 100 100 100 100 100 100 100 82 60 100 100 100 100 100 100 100
26 22 20 14 14 14 11 8 8 8 8 9 10 12 15 20 23 23 22 20 33 40 50 85 100 93 100 100 100 100 100 100 100 100 100 100 100 100 100 100 100 100 98 99
20 16 16 15 12 9 8 8 7 7 8 9 11 13 18 22 24 21 19 20 35 46 70 69 92 100 98 100 100 100 100 98 100 100 100 100 100 100 100 100 100 100 100 100
17 19 14 10 11 9 8 7 8 8 9 10 11 14 16 16 21 23 21 20 26 50 57 71 67 97 100 100 100 100 94 100 82 100 100 100 100 100 100 100 100 100 100 100
20 16 11 10 11 9 8 8 9 9 10 12 13 18 21 19 18 20 21 20 22 40 71 78 76 94 96 95 100 96 97 100 100 88 97 100 100 100 100 100 100 100 100 100
16 13 12 10 12 9 8 9 11 11 12 14 16 19 23 21 24 23 26 25 23 23 35 58 81 71 73 82 77 83 98 89 98 100 100 100 100 100 100 100 100 100 97 88
14 13 14 11 10 9 9 10 13 16 15 16 16 15 17 19 20 20 20 27 26 25 22 28 42 52 72 86 90 82 82 92 91 98 100 100 100 100 100 100 95 93 94 82
Wind_Speed
86 85 80 87 85 85 86 87 84 86 87 84 83 81 87 90 90 89 90 93 94 92 91 91 87 87 84 84 83 82 79 74 72 67 59 59 57 56 60 62 62 56 46 41
84 83 86 87 86 86 85 88 88 87 90 86 85 82 90 95 96 93 93 96 93 93 92 94 84 83 83 80 73 73 74 70 67 60 56 55 57 52 50 56 54 45 41 42
84 82 87 88 82 82 83 86 87 86 89 91 88 83 91 95 94 95 97 98 99 98 93 83 78 78 74 71 67 62 59 62 57 55 55 49 51 49 47 50 38 38 39 42
83 80 85 87 85 83 80 85 86 88 88 91 93 85 91 95 96 97 99 101 100 97 79 70 69 70 65 61 56 51 51 51 48 50 46 47 46 46 49 49 40 25 46 54
82 84 85 84 87 92 85 91 90 92 94 94 95 97 87 97 101 100 101 101 96 82 65 66 60 59 53 47 45 43 44 42 42 40 41 41 40 50 51 48 49 56 67 57
86 84 85 86 87 88 90 92 93 93 94 93 96 97 88 97 96 95 96 92 82 67 60 59 56 49 44 39 37 36 37 36 37 38 38 39 44 46 51 54 50 50 50 55
87 86 88 89 91 90 92 93 94 94 94 93 96 93 91 94 90 87 85 78 66 57 57 53 48 41 36 32 31 33 33 34 34 35 32 32 35 43 48 47 48 40 41 43
91 91 89 91 94 96 94 94 95 94 93 91 96 92 89 88 85 82 77 69 57 54 51 45 38 33 31 28 27 29 29 27 27 27 32 37 40 45 45 38 24 32 37 37
93 94 93 93 93 94 95 96 96 95 95 94 92 88 86 85 76 75 70 66 53 45 43 36 30 32 29 27 29 27 24 23 26 27 31 36 36 37 32 27 25 25 21 27
89 93 95 93 94 94 95 95 96 96 95 91 85 83 79 74 76 70 65 60 47 41 38 30 31 29 27 28 29 29 28 29 32 30 29 36 37 32 30 27 29 33 35 37
84 86 88 90 93 93 92 92 91 92 91 88 83 77 74 72 67 68 60 53 43 39 33 30 29 29 30 32 35 38 37 34 34 38 34 33 32 28 26 21 28 30 30 34
75 75 80 86 88 86 87 88 86 85 84 82 80 73 70 65 63 63 54 46 40 38 34 36 35 32 36 40 46 47 44 42 38 38 34 37 37 31 21 21 31 24 28 31
65 67 71 75 79 79 81 84 84 81 79 78 76 62 61 55 57 60 51 42 42 38 38 38 41 40 41 52 48 46 46 45 40 38 39 42 37 30 29 25 31 23 22 24
58 61 66 69 71 73 75 80 80 78 72 70 63 55 59 50 53 49 45 42 44 42 40 45 45 46 49 57 54 48 44 45 44 44 43 42 37 30 30 30 31 24 21 27
55 55 58 61 63 67 68 70 74 72 67 63 55 51 56 52 52 42 45 46 46 45 45 51 50 53 57 60 57 51 47 52 48 47 46 39 41 41 31 30 35 31 28 34
55 61 62 65 67 67 62 65 65 63 61 54 44 42 56 50 46 44 47 47 46 48 52 59 55 58 62 62 62 54 50 51 47 45 42 41 37 28 26 33 41 33 34 37
64 65 62 64 64 58 50 55 55 54 51 47 36 46 51 46 43 44 49 48 50 51 56 63 61 60 66 62 64 62 54 53 54 48 45 40 39 33 31 48 52 44 53 45
62 59 58 56 54 50 49 52 51 46 46 43 40 46 46 42 44 49 50 51 47 50 53 63 63 62 67 64 63 63 59 57 58 53 52 44 40 37 36 49 55 57 52 52
58 51 46 45 47 46 46 49 44 40 43 42 43 42 42 43 46 48 49 47 44 50 51 66 65 66 67 68 67 65 63 58 58 54 54 50 48 45 51 48 55 53 56 58
48 43 41 40 40 42 40 41 36 37 38 37 39 39 44 48 47 46 47 46 43 50 55 69 67 69 67 70 70 69 69 62 59 62 58 53 56 61 61 54 51 50 59 55
41 37 39 37 36 36 36 32 32 33 32 33 38 42 46 45 47 50 50 47 51 50 57 67 69 71 70 71 71 74 71 68 65 65 65 65 62 62 62 66 67 59 54 62
36 34 35 33 31 32 29 29 29 29 28 31 36 39 46 52 54 51 49 49 55 60 60 63 74 71 73 75 77 74 74 74 73 71 72 70 70 69 74 76 76 76 71 66
34 32 34 28 28 28 25 25 25 25 27 32 38 44 49 51 53 54 52 50 55 61 64 64 67 74 74 77 80 80 81 82 79 78 74 74 79 78 80 83 83 82 84 85
33 33 32 26 26 24 22 20 21 22 24 30 35 40 44 47 47 51 53 51 55 60 70 70 68 76 79 76 83 85 86 85 86 85 86 84 82 87 89 89 92 90 88 82
31 31 30 23 22 24 20 19 18 22 23 29 34 41 44 46 46 50 52 51 51 59 62 67 73 74 79 82 80 83 87 91 90 88 90 89 91 92 94 96 92 91 91 89
29 27 26 23 21 21 19 19 17 20 22 25 30 35 40 44 45 48 50 53 53 51 53 59 63 66 73 80 82 81 83 90 91 91 98 95 95 95 97 97 99 96 97 95
Wind_Direction
264 266 268 266 268 269 270 272 273 272 272 273 272 271 273 274 275 276 278 280 282 285 286 288 285 285 283 276 275 275 277 277 270 265 259 254 253 244 240 237 238 248 248 240
266 265 263 266 267 266 268 270 269 269 272 274 271 271 270 272 275 277 278 280 282 285 285 286 283 281 277 277 276 275 272 266 261 258 253 247 245 236 230 236 238 241 239 246
268 265 266 264 265 266 266 266 266 267 270 272 272 270 271 274 275 277 279 282 284 285 286 285 281 280 280 279 275 268 263 258 255 252 248 242 239 230 221 228 226 244 259 253
267 268 262 264 265 265 265 263 264 265 267 270 273 273 273 275 277 279 281 284 286 288 284 278 277 280 279 276 271 263 257 251 246 244 239 232 227 219 211 208 207 213 236 258
264 265 266 265 266 266 263 265 265 265 267 269 273 275 277 278 280 282 283 286 288 286 283 281 282 279 278 273 265 257 246 239 235 233 230 226 215 212 203 195 210 209 223 237
264 263 266 268 267 268 267 268 270 271 272 275 277 276 279 280 283 285 286 288 288 286 285 284 282 279 277 264 253 245 233 228 225 222 220 213 205 201 197 198 209 220 223 238
261 262 264 266 268 270 273 271 271 272 275 276 278 281 282 283 286 287 288 288 284 285 283 281 280 281 268 254 244 237 227 223 220 217 205 195 192 195 198 204 217 228 240 247
259 262 264 265 267 268 272 275 275 274 276 277 280 285 286 287 286 287 287 287 283 282 277 274 273 264 253 246 228 220 214 212 213 202 190 179 186 190 199 214 239 245 263 265
258 262 262 264 267 269 272 274 277 277 278 279 281 284 284 286 287 285 289 286 285 278 271 265 257 249 241 233 218 205 197 190 193 192 184 184 185 188 189 206 226 250 269 287
256 260 262 264 267 269 271 274 276 276 278 279 281 283 283 282 282 284 285 284 283 271 260 250 241 234 225 220 206 187 176 176 176 180 189 193 197 194 197 207 230 250 269 284
256 258 262 265 268 270 271 272 274 277 278 280 279 279 279 280 279 279 276 277 272 258 243 229 224 217 209 197 190 174 168 168 176 178 197 204 200 195 198 217 248 245 273 289
256 257 258 263 267 268 269 270 272 275 276 276 276 277 278 275 273 271 269 268 255 244 227 219 215 202 199 188 182 176 172 173 179 188 199 192 194 200 213 228 243 249 274 279
255 256 257 260 264 267 272 274 274 274 274 275 277 278 273 268 264 263 262 254 241 230 217 220 207 198 190 181 186 186 180 181 177 186 194 192 200 209 208 232 224 243 273 278
253 255 258 263 264 264 268 272 273 272 275 276 279 274 273 261 256 254 251 241 230 219 210 207 198 197 188 186 184 190 186 184 183 187 190 192 200 207 212 221 226 236 264 265
256 260 266 263 268 270 266 267 270 272 274 274 273 269 266 259 253 248 242 232 221 213 204 196 195 196 187 190 191 190 194 189 197 203 196 198 202 205 213 231 235 243 246 264
261 265 266 267 272 272 271 273 274 276 272 272 264 261 256 251 251 240 235 229 220 211 200 193 196 197 191 196 196 195 198 201 204 206 207 207 205 212 221 236 227 250 256 260
267 272 273 273 274 278 278 271 269 266 266 264 260 248 253 247 242 235 233 226 220 212 200 198 195 198 195 199 201 197 197 204 211 208 206 211 214 215 207 219 239 249 266 257
269 269 272 276 279 277 270 269 268 269 268 266 255 247 249 244 238 231 233 228 221 214 202 196 195 197 198 199 204 204 203 209 214 213 215 212 197 203 207 217 231 244 252 256
274 276 278 275 273 270 268 268 269 266 261 256 252 247 243 239 235 232 235 235 223 213 204 198 198 196 201 201 204 205 207 210 213 214 217 214 199 200 205 222 230 238 244 246
277 281 278 274 271 269 266 265 264 257 251 245 241 235 231 231 231 230 230 232 228 214 202 201 201 200 200 204 205 206 210 209 215 214 213 213 211 206 214 218 222 247 247 243
280 280 279 274 272 271 268 264 255 248 245 236 228 224 228 227 226 225 224 226 225 219 207 202 202 204 205 206 205 207 210 207 212 218 215 212 214 224 228 221 224 233 232 245
281 281 277 276 276 272 266 259 250 242 236 229 221 219 218 221 225 226 225 222 220 223 217 208 205 206 208 209 207 210 210 211 211 217 223 226 227 229 231 233 235 240 243 250
283 283 280 279 277 270 263 250 239 232 226 221 218 215 218 224 226 227 226 223 222 221 223 216 214 211 211 213 213 214 215 218 215 217 220 227 230 227 228 231 235 241 248 251
284 283 279 278 271 262 252 235 222 222 219 222 220 216 223 227 229 233 232 228 222 221 225 226 221 215 214 214 215 217 218 218 221 222 222 226 228 228 230 233 237 241 245 248
280 278 276 271 260 256 243 225 213 220 218 219 221 218 221 227 228 232 236 235 233 227 223 224 229 228 220 221 223 224 222 222 224 226 225 227 228 232 235 237 238 242 245 249
275 270 266 263 253 248 238 228 209 220 225 227 227 229 227 231 233 236 235 234 234 233 232 230 230 231 233 234 236 235 230 228 227 228 229 231 231 234 238 238 241 246 251 253